Dewpoint
57 57 56 55 55 55 55 55 55 56 55 54 53 53 53 53 53 51 51 55 50 48 44 38 37 44 43 41 41 36 39 39 39 39 35 36 33 34 32 36 31 33 33 35 34 31 37 46 44 43 46 47 48 49
56 57 56 56 55 55 55 55 55 55 55 54 52 53 53 53 53 52 52 51 50 50 47 41 37 43 45 42 38 40 41 41 43 43 43 40 38 38 35 32 39 39 41 39 39 42 46 46 46 47 47 46 48 48
55 56 56 56 55 55 55 55 55 55 55 54 52 52 53 53 53 51 49 52 48 50 46 43 35 39 34 34 33 43 44 42 45 44 45 43 39 41 37 39 39 44 45 44 43 44 46 46 47 48 49 48 49 50
55 56 56 56 55 55 55 54 55 55 54 54 52 52 52 53 52 51 48 50 50 48 44 40 38 43 41 37 40 40 40 40 41 47 45 44 42 43 39 41 39 43 45 44 42 45 47 47 48 49 50 51 51 52
55 55 56 56 55 55 55 54 54 54 54 53 53 52 52 52 52 49 48 52 46 47 43 42 37 37 36 40 44 45 40 42 46 46 45 43 44 44 44 42 42 44 45 44 43 48 48 48 49 51 51 51 51 50
54 55 55 55 54 55 55 54 54 54 54 54 53 52 52 52 51 48 52 50 48 50 48 43 41 39 37 41 43 47 46 47 47 46 44 45 44 44 41 41 46 47 48 48 48 49 48 50 50 51 50 50 50 50
55 55 55 55 54 55 54 53 54 54 54 54 53 52 52 51 47 47 47 50 49 52 50 43 41 42 40 41 42 44 45 46 47 46 46 46 46 47 44 41 46 45 46 47 49 49 44 48 48 51 51 51 51 50
54 54 54 54 54 55 54 53 54 54 54 54 53 52 51 50 50 48 51 50 50 50 49 42 42 42 40 41 43 46 46 48 50 47 48 46 48 48 43 48 46 45 47 46 47 45 42 49 49 50 50 50 49 49
54 54 54 54 54 54 53 53 54 54 54 53 52 50 48 48 49 53 53 52 54 52 48 45 38 43 43 44 46 48 49 46 49 46 46 48 46 44 48 50 48 47 47 46 44 40 46 46 47 49 50 50 49 50
53 53 53 54 54 54 53 53 54 54 53 51 47 47 48 51 53 53 52 50 48 48 48 43 45 42 46 44 44 48 48 46 44 47 50 47 44 52 53 52 49 48 47 44 41 43 44 47 48 50 50 50 49 50
53 53 53 54 54 53 53 53 54 52 49 46 47 47 52 52 49 50 48 47 47 44 45 43 39 40 50 48 49 50 45 44 42 44 45 45 44 51 52 51 50 48 47 43 43 42 44 48 49 50 51 50 50 50
53 53 53 54 54 53 53 53 53 47 47 46 44 47 49 48 47 44 43 44 43 42 46 44 43 45 51 54 49 49 46 46 42 48 44 42 50 53 52 50 50 47 46 41 43 42 45 48 49 51 51 50 51 51
53 53 53 53 53 53 53 53 51 49 48 49 47 44 44 46 39 38 34 40 42 43 48 46 45 48 51 48 48 47 44 42 47 44 41 45 53 53 53 51 48 47 43 42 44 43 46 47 52 50 50 51 52 52
53 53 53 53 53 53 53 52 49 48 46 46 42 35 38 38 39 39 40 44 47 46 46 48 46 46 50 46 48 44 45 45 42 41 40 50 53 54 53 53 49 47 43 44 44 44 46 46 50 53 53 51 52 50
53 53 53 53 52 53 52 50 49 48 45 42 42 36 39 39 39 40 43 45 48 48 49 46 46 47 45 46 46 44 42 40 41 40 48 53 56 54 54 53 51 48 45 44 44 45 46 47 47 47 49 46 52 52
53 53 52 52 53 52 49 49 49 47 44 42 41 41 42 41 41 41 42 43 46 48 48 47 46 45 42 44 42 40 39 38 43 49 53 55 55 56 56 55 53 50 47 45 45 46 46 45 48 46 46 47 48 52
52 51 52 52 52 50 50 50 48 43 42 40 39 41 41 42 41 42 44 45 50 48 44 44 41 39 44 41 39 43 40 48 52 52 56 56 55 55 56 56 55 53 49 47 47 48 49 45 47 44 44 49 45 50
51 52 53 51 50 49 49 50 45 42 39 39 39 41 42 43 43 43 44 46 47 46 47 45 47 44 41 38 42 48 52 52 53 52 54 55 56 57 58 56 55 55 52 51 50 49 50 46 47 46 44 43 47 44
52 52 51 50 50 48 44 45 47 41 40 41 42 42 42 42 45 45 44 48 51 50 47 48 45 44 41 45 43 47 52 52 51 50 53 55 57 58 56 56 56 56 55 53 51 49 45 45 47 45 43 44 41 44
52 51 51 52 52 46 43 44 46 42 40 41 42 41 41 42 43 44 43 44 46 44 46 43 42 43 43 46 50 46 49 53 52 50 50 52 56 56 55 57 57 55 55 55 53 48 46 45 42 44 41 44 43 41
50 50 51 51 49 48 45 43 42 41 40 40 42 44 41 43 42 41 40 44 41 39 38 41 43 44 48 46 50 50 53 51 52 53 52 48 52 56 55 57 56 54 53 55 54 44 43 42 41 41 43 40 44 42
49 50 49 49 46 46 43 44 42 44 43 41 42 43 41 40 40 41 42 40 39 40 41 41 42 43 48 48 52 53 52 54 49 49 49 50 52 55 57 57 56 54 53 55 46 44 45 44 42 41 43 40 43 41
50 50 47 45 42 40 39 45 42 42 41 40 41 37 38 40 41 44 41 41 41 43 43 43 46 49 46 50 53 53 52 51 52 52 51 49 50 54 55 57 55 53 52 55 47 46 45 44 39 39 43 41 44 42
50 45 42 41 40 38 40 43 43 41 39 38 36 37 40 44 45 44 38 39 41 43 44 47 46 46 48 52 48 49 50 50 49 50 51 50 53 55 54 53 55 53 56 49 43 46 47 45 42 41 41 38 39 41
39 39 41 36 41 39 38 37 37 37 35 36 35 36 41 49 44 41 39 41 43 44 43 47 48 44 43 44 46 49 53 49 48 46 47 50 52 53 51 52 52 50 51 47 43 44 45 43 43 41 38 36 38 38
36 41 39 38 38 37 36 34 34 35 36 37 41 42 43 45 40 39 46 51 50 50 51 53 45 45 45 45 45 47 51 53 55 54 53 50 49 47 48 47 45 45 44 45 44 43 41 40 39 38 37 34 35 35
37 39 40 41 41 40 37 36 40 40 40 37 38 38 38 36 36 46 52 53 51 52 56 56 52 50 48 52 53 54 58 57 57 56 54 53 50 50 46 45 43 46 46 46 44 42 40 40 39 37 37 38 37 37
39 40 38 40 37 38 35 37 36 36 36 41 43 38 37 40 44 51 50 52 53 57 55 55 53 51 50 53 53 57 57 56 57 57 57 48 47 43 44 44 45 42 46 44 43 45 44 42 39 38 37 37 39 37
39 39 37 36 37 36 36 35 35 37 43 41 41 41 44 48 49 51 50 52 54 50 50 51 48 48 51 53 56 59 56 54 53 50 47 45 45 42 42 42 41 41 44 40 37 40 39 38 38 38 40 41 40 40
37 38 37 36 35 34 35 38 39 39 39 39 39 41 42 42 43 44 44 44 49 48 48 47 46 44 46 48 47 54 56 54 57 55 53 51 49 47 45 48 41 40 43 42 40 39 38 36 35 37 36 38 40 41
41 40 38 37 35 37 37 38 38 39 39 38 39 39 38 39 39 41 41 44 43 42 43 44 43 44 43 44 45 46 50 57 56 55 53 52 51 52 52 52 50 42 40 39 39 38 35 36 37 40 39 39 40 38
37 36 36 35 35 37 38 37 37 37 37 38 36 37 37 38 38 39 41 41 39 38 39 39 39 39 42 42 48 47 47 52 57 56 53 51 49 52 52 53 51 49 48 43 40 38 37 37 38 39 37 39 42 43
33 33 34 33 34 35 36 37 37 36 36 35 36 36 36 38 40 48 51 50 48 41 39 38 38 40 47 47 48 49 46 47 49 45 45 46 46 48 48 50 49 48 45 44 38 37 37 37 37 40 41 39 42 42
Lifted_Index
4 3 4 4 5 5 5 6 7 9 10 11 11 12 12 12 11 9 7 8 8 7 7 8 8 7 7 7 7 6 6 6 6 5 5 5 5 4 4 4 4 3 3 3 3 3 2 2 2 2 2 2 1 1
3 3 4 4 5 5 5 6 7 8 10 11 11 12 12 13 12 10 8 8 8 7 7 8 8 8 8 7 7 6 6 6 5 5 5 4 4 4 4 3 3 3 3 3 2 2 2 2 2 2 2 2 2 2
3 4 4 4 5 5 5 5 6 7 9 11 11 12 12 13 13 11 9 8 8 7 6 7 8 8 8 8 7 6 6 6 5 5 4 4 4 3 3 3 3 2 2 2 2 2 2 2 2 3 3 3 2 2
4 4 4 5 5 5 5 5 6 6 8 10 11 11 12 13 13 11 9 8 8 7 6 6 7 8 8 8 8 7 6 6 5 5 4 4 3 3 3 3 2 2 2 2 2 2 2 3 3 3 3 3 3 3
5 5 6 6 6 6 6 5 5 6 7 9 11 11 12 12 12 10 8 8 8 8 6 6 7 7 8 8 7 7 6 6 5 4 4 4 3 3 3 3 2 2 2 2 3 3 3 3 3 3 4 4 4 4
7 7 8 8 7 7 7 6 6 7 7 9 11 11 12 12 11 9 7 7 8 8 7 6 6 7 7 7 7 7 6 5 5 4 4 4 3 3 3 3 2 2 2 3 3 3 3 4 4 4 5 5 5 5
8 8 9 9 8 8 7 7 7 8 8 10 11 12 12 12 11 9 7 7 9 8 7 6 6 6 6 6 6 6 5 5 4 4 4 3 3 3 3 2 2 2 2 3 3 4 4 4 4 5 5 5 5 5
9 9 9 9 8 8 8 8 8 9 9 11 12 12 12 11 10 8 7 8 9 8 6 5 5 5 5 5 5 5 4 4 4 3 3 3 3 2 2 1 1 2 2 3 4 5 5 5 5 5 5 5 5 5
9 9 9 8 8 8 8 8 9 10 11 12 12 12 11 10 8 7 7 8 8 7 6 5 5 4 4 4 4 3 3 3 3 2 2 2 2 2 1 1 1 2 3 4 5 6 5 5 5 5 5 6 6 6
9 9 9 8 8 8 8 9 10 10 11 12 11 10 9 8 8 7 7 7 7 6 6 5 5 4 4 3 3 2 2 2 2 2 2 2 2 1 1 1 1 2 4 5 6 6 6 5 5 5 5 6 6 6
9 9 8 8 8 9 9 10 10 11 11 11 10 9 8 8 8 7 7 6 6 6 5 5 5 4 3 2 2 2 2 2 2 1 1 1 1 1 1 1 2 3 4 6 7 7 7 6 5 5 6 6 6 5
9 9 9 9 9 9 9 10 10 11 10 10 9 9 8 8 7 7 6 6 5 5 5 5 5 4 3 2 2 2 2 2 2 1 1 1 0 0 1 1 2 3 5 6 7 7 7 6 5 5 6 6 6 5
9 9 9 9 9 9 9 10 10 11 10 9 9 8 7 7 6 6 6 5 5 5 4 4 4 4 3 2 2 2 2 2 2 1 1 -0 -0 -0 1 1 2 3 5 6 7 7 7 6 5 5 5 5 6 6
8 8 9 9 9 9 9 10 10 10 10 8 8 7 7 6 6 6 5 5 4 4 4 4 4 4 3 3 3 2 3 2 2 1 0 -1 -1 -0 1 1 2 3 4 6 6 6 6 6 5 5 5 5 6 6
8 8 8 8 8 9 9 9 10 10 9 8 7 6 6 6 5 5 5 5 4 4 4 3 3 4 4 3 3 3 2 2 2 1 -1 -2 -2 -1 0 1 1 2 4 5 6 6 6 5 5 5 5 5 5 5
7 7 7 7 8 8 9 9 9 9 8 7 6 6 5 5 5 5 5 5 4 4 3 3 3 3 3 3 3 2 2 1 1 -0 -2 -3 -2 -1 -1 -0 0 1 3 4 5 5 5 5 5 6 6 6 5 5
7 6 6 7 8 8 9 9 8 8 7 6 6 5 5 5 5 5 5 5 4 3 3 3 3 3 3 2 2 1 1 1 0 -1 -2 -2 -2 -1 -1 -1 -0 0 2 3 4 4 5 5 5 6 6 6 6 6
6 6 6 7 8 8 8 8 8 7 6 6 5 5 6 6 5 5 5 4 4 3 3 3 2 2 2 1 1 0 0 0 0 0 -0 -1 -1 -1 -1 -1 -1 -0 1 2 3 4 5 5 5 6 6 6 6 6
6 6 6 7 7 7 7 8 8 7 6 6 6 6 6 6 5 5 5 4 4 3 3 3 2 2 1 1 1 1 0 0 1 1 1 -0 -1 -1 -1 -1 -1 -1 -0 1 2 3 4 5 5 6 6 7 7 7
6 7 7 7 7 7 7 7 8 7 6 6 6 6 6 6 5 5 5 4 4 4 3 3 2 2 1 1 1 1 0 0 1 1 0 -0 -1 -1 -1 -1 -1 -1 -1 -0 1 2 4 5 6 6 6 6 7 7
7 7 7 7 7 7 7 7 7 7 7 6 6 5 5 5 5 5 5 4 4 4 4 3 2 2 1 1 1 0 0 0 0 0 -0 -1 -0 -1 -1 -1 -1 -0 -0 -0 0 2 4 5 6 6 6 6 6 7
7 7 7 7 7 7 7 7 7 7 6 6 5 5 5 5 5 4 4 4 4 4 4 3 3 2 2 1 0 -0 0 -0 -0 -1 -1 -1 -1 -1 -1 -1 -0 -0 -1 -0 1 3 4 5 6 6 6 6 6 6
7 6 6 6 6 6 6 6 6 5 5 5 5 5 4 4 4 4 4 4 3 3 3 3 3 2 2 1 0 0 0 -0 -1 -1 -1 -0 -1 -1 -1 -1 -0 -1 -1 -0 1 3 4 5 5 6 6 6 6 6
6 5 5 5 5 5 5 5 5 5 4 4 4 4 4 3 3 3 3 3 3 2 2 2 2 2 1 1 0 -0 -0 -1 -1 -1 -0 -0 -0 -0 -0 -0 -0 -0 -0 0 2 3 4 4 5 5 6 6 6 6
4 4 4 4 4 4 4 4 4 4 4 4 4 3 3 2 3 3 2 2 2 1 1 1 1 1 1 1 0 -0 -1 -1 -0 -0 0 0 0 0 0 0 0 1 1 2 3 3 3 4 4 5 5 6 7 7
4 4 4 4 4 4 3 3 3 3 3 3 3 3 2 2 2 2 1 1 1 1 0 -0 0 0 0 0 0 -0 -1 -0 -0 -0 -0 0 0 0 1 1 1 2 2 3 3 3 3 3 4 4 5 6 6 7
4 4 3 3 3 3 3 3 3 3 2 2 2 2 2 2 1 1 1 1 1 1 -0 -1 -0 -0 -0 -0 -0 -1 -0 0 0 0 -0 0 1 1 1 2 2 2 3 3 4 4 4 4 4 4 5 6 6 7
4 3 3 3 3 3 3 3 3 3 2 2 2 2 2 1 1 1 1 1 1 -0 -1 -1 -1 -0 -0 -1 -1 -1 -0 0 1 0 -0 0 1 2 2 3 3 3 3 4 4 5 4 4 4 5 5 6 6 6
4 4 4 4 4 4 4 4 3 3 3 3 2 2 2 2 1 1 1 0 -0 -1 -1 -1 -1 -0 -0 -1 -1 -1 -0 -0 -0 -0 -0 1 2 2 2 3 3 4 4 4 5 5 5 4 5 5 5 6 6 6
4 4 4 4 4 4 4 4 4 3 3 3 3 2 2 2 2 1 1 0 -0 -0 -0 -1 -0 -0 -1 -1 -1 -1 -1 -1 -1 -0 0 0 1 1 2 2 3 4 4 5 5 5 5 5 5 5 5 5 5 5
4 4 4 4 4 4 4 4 3 3 3 3 3 2 2 2 2 2 2 1 1 1 0 -0 -0 -0 -0 -1 -1 -1 -1 -1 -0 -0 0 0 0 0 1 1 2 2 3 4 4 5 5 4 4 4 4 4 4 4
4 4 4 4 4 4 4 4 3 3 3 3 3 2 2 2 2 1 1 1 1 1 1 0 0 0 -0 -0 -1 -1 -1 -1 -1 -1 -1 -1 -0 0 1 1 1 1 2 2 3 4 4 4 4 4 4 3 3 3
5 5 5 4 4 4 4 3 3 3 3 3 3 2 2 1 1 0 -0 -0 0 0 1 1 0 0 0 -0 -1 -1 -1 -1 -1 -1 -2 -1 -1 0 1 1 1 1 1 2 3 4 3 3 3 3 3 3 3 3